Location: Northcutt
(34.7304°N, 84.4305°W)
Time: 17:07:19
(UTC+00:00)

SR - Pass Details

Date: 13 October 2022
Orbit: 577 x 874 km, 66.7° (Epoch: 05 December)

Event Time Altitude Azimuth Distance (km) Brightness Sun altitude
Rises 23:55:28 0° 214° (SW) 3,409 ? -10.8°
Reaches altitude 10° 23:57:56 10° 218° (SW) 2,496 ? -11.3°
Maximum altitude 00:03:43 62° 299° (WNW) 978 ? -12.5°
Drops below altitude 10° 00:09:32 10° 20° (NNE) 2,513 ? -13.7°
Sets 00:12:02 0° 23° (NNE) 3,433 ? -14.2°
